Regional Weather Roundup
Issued by NWS State College, PA

Home | Current Version | Previous Version | Graphics & Text | Print | Product List | Glossary Off
Versions: 1 2 3 4 5 6 7 8 9 10 11 12 13 14 15 16 17 18 19 20 21 22 23 24 25 26 27 28 29 30 31 32 33 34 35 36 37 38 39 40 41 42 43 44 45 46 47 48 49 50

000
ASUS41 KCTP 301803
RWRCTP

REGIONAL WEATHER ROUNDUP
NATIONAL WEATHER SERVICE STATE COLLEGE PA
200 PM EDT TUE AUG 30 2016

Note: "fair" indicates few or no clouds below 12,000 feet with no
significant weather and/or obstructions to visibility.

* = STATION THAT DOES NOT REPORT PRECIPITATION /E.G. RAIN...SNOW...ETC/
    THUNDER OR FOG.

PAZ002>004-007>009-013>016-020>023-029>032-301900-
WESTERN PENNSYLVANIA

CITY           SKY/WX    TMP DP  RH WIND       PRES   REMARKS
ERIE           SUNNY     81  61  50 NW9       30.14F
MEADVILLE      SUNNY     79  53  40 VRB5      30.17F
FRANKLIN*        N/A     81  52  36 NE6       30.18F
NEW CASTLE     FAIR      82  54  37 CALM      30.16F
BEAVER COUNTY  SUNNY     86  54  32 SW5       30.17F
BUTLER*        NOT AVBL
PITTSBURGH INT MOSUNNY   85  44  23 NE7       30.15F
PITTSBURGH     SUNNY     81  50  33 S3        30.15F
INDIANA*       SUNNY     81  57  44 CALM      30.19F
LATROBE        SUNNY     81  64  57 CALM      30.17F
WASHINGTON CO* SUNNY     82  45  26 CALM      30.17F
$$

PAZ004>006-010>012-017>019-024>028-033>037-041-042-045-046-049>053-301900-
CENTRAL PENNSYLVANIA

CITY           SKY/WX    TMP DP  RH WIND       PRES   REMARKS
BRADFORD       SUNNY     77  57  50 CALM      30.19F
DUBOIS         SUNNY     78  57  48 VRB3      30.18F
CLEARFIELD     NOT AVBL
JOHNSTOWN      SUNNY     78  57  48 W3        30.20F
ALTOONA        SUNNY     81  58  45 CALM      30.18F
STATE COLLEGE  MOSUNNY   79  61  53 CALM      30.16F
WILLIAMSPORT   SUNNY     83  57  41 VRB3      30.11F
SELINSGROVE    MOSUNNY   83  61  47 VRB5      30.13F
FT INDIANTOWN  MOSUNNY   83  60  46 SE5       30.13F
CAPITAL CITY   MOSUNNY   86  57  37 N6        30.12F
HARRISBURG     MOSUNNY   85  61  44 VRB3      30.12F
YORK           MOSUNNY   85  60  42 SW3       30.12
$$

PAZ038>040-043-044-047-048-054-055-060>062-067>071-301900-
EASTERN PENNSYLVANIA

CITY           SKY/WX    TMP DP  RH WIND       PRES   REMARKS
SCRANTON       SUNNY     81  57  43 W6        30.15F
MOUNT POCONO   MOSUNNY   76  58  53 W8        30.19F
ALLENTOWN      SUNNY     84  58  40 NW8       30.13F
QUAKERTOWN*    PTCLDY    84  59  42 NW6       30.13F
READING        SUNNY     84  59  42 W8        30.12F
LANCASTER      MOSUNNY   85  61  44 VRB7      30.13F
COATESVILLE    CLEAR     84  61  45 NW8       30.15F
POTTSTOWN      SUNNY     85  58  39 VRB6      30.13F
BLUE BELL      CLOUDY    84  61  45 CALM      30.11F
DOYLESTOWN     SUNNY     86  60  41 CALM      30.11F
WILLOW GROVE   NOT AVBL
NORTH PHILA    MOSUNNY   88  61  40 E5        30.11F
PHILADELPHIA   MOSUNNY   87  60  40 SE7       30.09F
$$




USA.gov is the U.S. government's official web portal to all federal, state and local government web resources and services.